FW3572 Weather Reports


Display with metric or nautical units.
time (UTC)temp
F
wind
direction
speed
MPH
gust
MPH
rain 1hr
in
rain 24hr
in
rain mn
in
humidity
%
barometer
mb
20210508224039 77 110 4.0 10.0 0.00 0.00 0.00 47 1019.4
20210508223538 77 346 2.0 10.0 0.00 0.00 0.00 47 1019.3
20210508223132 78 336 5.0 10.0 0.00 0.00 0.00 47 1019.4
20210508222537 77 123 3.0 12.0 0.00 0.00 0.00 47 1019.5
20210508222037 78 355 4.0 12.0 0.00 0.00 0.00 46 1019.4
20210508221616 78 42 4.0 11.0 0.00 0.00 0.00 46 1019.3
20210508221037 78 101 3.0 10.0 0.00 0.00 0.00 46 1019.4
20210508220537 78 355 4.0 10.0 0.00 0.00 0.00 45 1019.4
20210508220056 78 315 3.0 12.0 0.00 0.00 0.00 45 1019.4
20210508215537 78 22 5.0 12.0 0.00 0.00 0.00 45 1019.3
20210508215037 78 32 2.0 8.0 0.00 0.00 0.00 44 1019.3
20210508214635 79 44 3.0 10.0 0.00 0.00 0.00 43 1019.4
20210508214036 79 28 3.0 12.0 0.00 0.00 0.00 44 1019.3
20210508213555 79 326 3.0 12.0 0.00 0.00 0.00 44 1019.4
20210508213055 79 26 6.0 11.0 0.00 0.00 0.00 43 1019.4
20210508212537 79 36 3.0 13.0 0.00 0.00 0.00 44 1019.3
20210508212036 79 31 4.0 13.0 0.00 0.00 0.00 44 1019.6
20210508211633 79 355 3.0 11.0 0.00 0.00 0.00 43 1019.6
20210508211034 80 34 4.0 11.0 0.00 0.00 0.00 43 1019.6
20210508210549 80 58 3.0 13.0 0.00 0.00 0.00 44 1019.6
20210508205542 80 13 4.0 11.0 0.00 0.00 0.00 42 1019.6
20210508205034 80 355 3.0 11.0 0.00 0.00 0.00 44 1019.6
20210508204605 80 360 4.0 13.0 0.00 0.00 0.00 42 1019.6
20210508204035 80 12 4.0 12.0 0.00 0.00 0.00 43 1019.6
20210508203540 80 123 4.0 12.0 0.00 0.00 0.00 43 1019.6
20210508203103 80 72 4.0 11.0 0.00 0.00 0.00 43 1019.6
20210508202541 81 5 2.0 10.0 0.00 0.00 0.00 44 1019.6
20210508202107 80 37 2.0 12.0 0.00 0.00 0.00 43 1019.6
20210508201620 81 76 4.0 12.0 0.00 0.00 0.00 43 1019.6
20210508201032 81 333 3.0 11.0 0.00 0.00 0.00 42 1019.7
20210508200532 81 5 3.0 10.0 0.00 0.00 0.00 42 1019.6
20210508200058 81 350 4.0 9.0 0.00 0.00 0.00 43 1019.6
20210508195535 81 100 4.0 9.0 0.00 0.00 0.00 42 1019.6
20210508195031 80 138 3.0 9.0 0.00 0.00 0.00 42 1019.7
20210508194555 80 88 2.0 11.0 0.00 0.00 0.00 42 1019.7
20210508194031 81 51 3.0 11.0 0.00 0.00 0.00 40 1019.8
20210508193535 81 50 1.0 9.0 0.00 0.00 0.00 42 1019.8
20210508193050 80 37 2.0 9.0 0.00 0.00 0.00 43 1019.9
20210508192529 80 360 2.0 10.0 0.00 0.00 0.00 42 1019.8
20210508192029 81 60 4.0 10.0 0.00 0.00 0.00 41 1019.9
20210508191534 81 45 2.0 10.0 0.00 0.00 0.00 42 1020.0
20210508191028 80 95 1.0 6.0 0.00 0.00 0.00 42 1020.0
20210508190528 81 91 2.0 5.0 0.00 0.00 0.00 42 1020.1
20210508190115 81 9 1.0 8.0 0.00 0.00 0.00 42 1020.2
20210508185535 81 28 3.0 10.0 0.00 0.00 0.00 41 1020.3
20210508185036 80 83 2.0 13.0 0.00 0.00 0.00 41 1020.2
20210508184606 81 346 4.0 11.0 0.00 0.00 0.00 41 1020.4
20210508184028 80 67 2.0 10.0 0.00 0.00 0.00 41 1020.5
20210508183528 81 33 3.0 10.0 0.00 0.00 0.00 40 1020.5
20210508183054 81 59 1.0 11.0 0.00 0.00 0.00 41 1020.3
20210508182527 81 11 5.0 11.0 0.00 0.00 0.00 41 1020.4
20210508182027 81 59 2.0 7.0 0.00 0.00 0.00 40 1020.5
20210508181558 81 17 2.0 8.0 0.00 0.00 0.00 39 1020.5
20210508181026 80 78 2.0 9.0 0.00 0.00 0.00 41 1020.5
20210508180536 81 70 4.0 11.0 0.00 0.00 0.00 41 1020.6
20210508180036 80 98 3.0 11.0 0.00 0.00 0.00 40 1020.6
20210508175526 81 79 1.0 10.0 0.00 0.00 0.00 41 1020.7
20210508175100 81 25 0.0 10.0 0.00 0.00 0.00 40 1020.6
20210508174550 81 119 4.0 11.0 0.00 0.00 0.00 39 1020.6
20210508174025 80 345 5.0 11.0 0.00 0.00 0.00 40 1020.6
20210508173526 80 33 0.0 8.0 0.00 0.00 0.00 40 1020.8
20210508173030 79 114 2.0 8.0 0.00 0.00 0.00 41 1020.8
20210508172523 80 107 3.0 8.0 0.00 0.00 0.00 39 1020.7
20210508172024 80 32 2.0 11.0 0.00 0.00 0.00 39 1020.9
20210508171607 80 40 4.0 11.0 0.00 0.00 0.00 40 1020.9
20210508171023 80 22 1.0 8.0 0.00 0.00 0.00 42 1020.9
20210508170523 80 26 3.0 12.0 0.00 0.00 0.00 42 1021.0
20210508170042 80 86 4.0 12.0 0.00 0.00 0.00 42 1020.9
20210508165522 80 102 2.0 12.0 0.00 0.00 0.00 40 1020.9
20210508165021 80 86 5.0 10.0 0.00 0.00 0.00 42 1021.0
20210508164548 80 86 3.0 9.0 0.00 0.00 0.00 41 1021.0
20210508164031 80 66 2.0 11.0 0.00 0.00 0.00 44 1021.0
20210508163529 79 84 3.0 14.0 0.00 0.00 0.00 43 1021.1
20210508163024 79 38 5.0 14.0 0.00 0.00 0.00 42 1021.1
20210508162533 79 44 4.0 13.0 0.00 0.00 0.00 44 1021.1
20210508162032 80 35 4.0 13.0 0.00 0.00 0.00 44 1021.2
20210508161536 80 5 3.0 12.0 0.00 0.00 0.00 43 1021.3
20210508161031 79 355 2.0 12.0 0.00 0.00 0.00 44 1021.2
20210508160521 79 44 6.0 13.0 0.00 0.00 0.00 43 1021.4
20210508160020 79 296 4.0 16.0 0.00 0.00 0.00 45 1021.4
20210508155519 78 71 3.0 16.0 0.00 0.00 0.00 45 1021.4
20210508155016 78 9 3.0 13.0 0.00 0.00 0.00 45 1021.4
20210508154535 79 38 3.0 15.0 0.00 0.00 0.00 44 1021.4
20210508154028 79 355 7.0 15.0 0.00 0.00 0.00 45 1021.5
20210508153516 78 204 5.0 14.0 0.00 0.00 0.00 44 1021.5
20210508153029 79 325 3.0 17.0 0.00 0.00 0.00 45 1021.5
20210508152517 79 17 6.0 13.0 0.00 0.00 0.00 44 1021.4
20210508152018 79 355 5.0 12.0 0.00 0.00 0.00 45 1021.4
20210508151523 79 349 3.0 15.0 0.00 0.00 0.00 47 1021.4
20210508151012 78 30 5.0 15.0 0.00 0.00 0.00 45 1021.3
20210508150519 79 53 6.0 15.0 0.00 0.00 0.00 45 1021.3
20210508150029 78 355 3.0 14.0 0.00 0.00 0.00 45 1021.2
20210508145511 78 5 5.0 14.0 0.00 0.00 0.00 46 1021.2
20210508145020 78 113 4.0 13.0 0.00 0.00 0.00 46 1021.1
20210508144519 78 22 4.0 13.0 0.00 0.00 0.00 46 1021.1
20210508144010 78 17 3.0 13.0 0.00 0.00 0.00 46 1021.2
20210508143515 78 5 5.0 13.0 0.00 0.00 0.00 47 1021.1
20210508143017 78 55 2.0 12.0 0.00 0.00 0.00 47 1021.1
20210508142507 77 28 4.0 12.0 0.00 0.00 0.00 46 1021.1
20210508142006 77 10 4.0 14.0 0.00 0.00 0.00 45 1021.0
20210508141523 77 21 5.0 12.0 0.00 0.00 0.00 45 1020.9
20210508141007 77 58 5.0 12.0 0.00 0.00 0.00 45 1020.8
20210508140503 77 21 5.0 14.0 0.00 0.00 0.00 47 1020.7
20210508140005 77 5 5.0 15.0 0.00 0.00 0.00 47 1020.7
20210508135503 77 14 8.0 14.0 0.00 0.00 0.00 48 1020.6
20210508135002 77 349 5.0 14.0 0.00 0.00 0.00 47 1020.7
20210508134001 77 321 4.0 12.0 0.00 0.00 0.00 47 1020.6
20210508133502 76 348 3.0 15.0 0.00 0.00 0.00 49 1020.6
20210508133200 76 70 7.0 15.0 0.00 0.00 0.00 48 1020.6
20210508133001 76 24 5.0 15.0 0.00 0.00 0.00 48 1020.6
20210508132600 76 344 1.0 9.0 0.00 0.00 0.00 50 1020.6
20210508132108 76 17 2.0 9.0 0.00 0.00 0.00 50 1020.6
20210508131741 76 355 3.0 9.0 0.00 0.00 0.00 50 1020.6
20210508131059 75 24 4.0 13.0 0.00 0.00 0.00 51 1020.4
20210508130601 75 355 5.0 12.0 0.00 0.00 0.00 52 1020.4
20210508130233 75 22 3.0 12.0 0.00 0.00 0.00 54 1020.4
20210508125617 74 11 2.0 10.0 0.00 0.00 0.00 55 1020.3
20210508125103 74 355 3.0 11.0 0.00 0.00 0.00 56 1020.1
20210508124617 74 355 4.0 11.0 0.00 0.00 0.00 58 1020.1
20210508124046 73 317 1.0 9.0 0.00 0.00 0.00 60 1020.1
20210508123629 73 349 2.0 9.0 0.00 0.00 0.00 60 1020.0
20210508123215 72 331 1.0 8.0 0.00 0.00 0.00 60 1020.0
20210508122605 72 323 3.0 8.0 0.00 0.00 0.00 61 1020.1
20210508122149 72 355 1.0 5.0 0.00 0.00 0.00 61 1020.0
20210508121602 71 327 1.0 6.0 0.00 0.00 0.00 61 1019.9
20210508121054 71 346 0.0 8.0 0.00 0.00 0.00 61 1019.9
20210508120549 70 355 2.0 8.0 0.00 0.00 0.00 62 1019.8
20210508120107 70 313 1.0 6.0 0.00 0.00 0.00 63 1019.7
20210508115542 69 325 2.0 6.0 0.00 0.00 0.00 64 1019.7
20210508115041 69 317 1.0 5.0 0.00 0.00 0.00 65 1019.7
20210508114602 68 337 2.0 5.0 0.00 0.00 0.00 65 1019.6
20210508114056 67 22 2.0 4.0 0.00 0.00 0.00 66 1019.5
20210508113546 67 340 2.0 5.0 0.00 0.00 0.00 65 1019.4
20210508113137 67 323 2.0 6.0 0.00 0.00 0.00 65 1019.3
20210508112539 67 306 2.0 6.0 0.00 0.00 0.00 65 1019.3
20210508112037 67 336 1.0 5.0 0.00 0.00 0.00 65 1019.2
20210508111554 67 336 1.0 3.0 0.00 0.00 0.00 65 1019.2
20210508111048 66 326 0.0 3.0 0.00 0.00 0.00 66 1019.1
20210508110536 66 321 1.0 3.0 0.00 0.00 0.00 66 1019.0
20210508110054 66 321 0.0 3.0 0.00 0.00 0.00 67 1018.8
20210508105541 66 330 1.0 3.0 0.00 0.00 0.00 67 1018.7
20210508105035 66 333 0.0 3.0 0.00 0.00 0.00 68 1018.6
20210508104535 66 323 1.0 3.0 0.00 0.00 0.00 68 1018.6
20210508104035 65 325 0.0 2.0 0.00 0.00 0.00 68 1018.5
20210508103535 65 325 0.0 2.0 0.00 0.00 0.00 68 1018.4
20210508103053 65 325 0.0 2.0 0.00 0.00 0.00 68 1018.3
20210508102535 65 327 0.0 2.0 0.00 0.00 0.00 68 1018.2
20210508102053 65 327 0.0 1.0 0.00 0.00 0.00 68 1018.1
20210508101611 65 327 0.0 1.0 0.00 0.00 0.00 68 1018.1
20210508101105 66 327 0.0 1.0 0.00 0.00 0.00 68 1017.9
20210508100546 66 327 0.0 1.0 0.00 0.00 0.00 68 1017.9
20210508100111 65 327 0.0 2.0 0.00 0.00 0.00 68 1017.9
20210508095546 65 327 0.0 2.0 0.00 0.00 0.00 68 1017.9
20210508095049 65 328 0.0 0.0 0.00 0.00 0.00 68 1017.9
20210508094638 65 328 0.0 1.0 0.00 0.00 0.00 68 1017.8
20210508094048 65 328 0.0 2.0 0.00 0.00 0.00 68 1017.8
20210508093532 66 328 0.0 2.0 0.00 0.00 0.00 68 1017.8
20210508093038 66 328 0.0 2.0 0.00 0.00 0.00 68 1017.8
20210508092538 66 328 0.0 2.0 0.00 0.00 0.00 68 1017.8
20210508092032 66 328 0.0 2.0 0.00 0.00 0.00 69 1017.8
20210508091601 66 327 0.0 2.0 0.00 0.00 0.00 69 1017.8
20210508091037 66 327 0.0 2.0 0.00 0.00 0.00 69 1017.8
20210508090533 66 330 0.0 1.0 0.00 0.00 0.00 69 1017.8
20210508090053 66 330 0.0 1.0 0.00 0.00 0.00 69 1017.7
20210508085600 66 330 0.0 1.0 0.00 0.00 0.00 68 1017.6
20210508085030 66 330 0.0 2.0 0.00 0.00 0.00 68 1017.7
20210508084552 66 330 0.0 2.0 0.00 0.00 0.00 68 1017.7
20210508084030 66 330 0.0 2.0 0.00 0.00 0.00 68 1017.7
20210508083530 66 331 0.0 2.0 0.00 0.00 0.00 68 1017.7
20210508083044 66 331 0.0 1.0 0.00 0.00 0.00 68 1017.6
20210508082547 66 331 0.0 2.0 0.00 0.00 0.00 68 1017.5
20210508082029 66 331 0.0 2.0 0.00 0.00 0.00 68 1017.7
20210508081545 66 329 0.0 2.0 0.00 0.00 0.00 68 1017.7
20210508081030 66 329 0.0 2.0 0.00 0.00 0.00 68 1017.6
20210508080527 66 329 0.0 2.0 0.00 0.00 0.00 67 1017.7
20210508080116 66 329 0.0 3.0 0.00 0.00 0.00 67 1017.7
20210508075600 66 329 0.0 3.0 0.00 0.00 0.00 67 1017.7
20210508075035 66 331 0.0 3.0 0.00 0.00 0.00 67 1017.7
20210508074559 66 331 1.0 3.0 0.00 0.00 0.00 68 1017.7
20210508074036 66 332 0.0 2.0 0.00 0.00 0.00 68 1017.8
20210508073535 66 335 0.0 2.0 0.00 0.00 0.00 68 1017.7
20210508073129 67 336 0.0 3.0 0.00 0.00 0.00 68 1017.8
20210508072540 67 336 1.0 3.0 0.00 0.00 0.00 68 1017.8
20210508072026 67 346 0.0 3.0 0.00 0.00 0.00 69 1017.8
20210508071529 67 355 0.0 3.0 0.00 0.00 0.00 69 1017.8
20210508071032 67 5 0.0 3.0 0.00 0.00 0.00 69 1017.7
20210508070535 67 5 0.0 3.0 0.00 0.00 0.00 69 1017.8
20210508070104 67 17 0.0 3.0 0.00 0.00 0.00 69 1017.8
20210508065541 67 17 0.0 3.0 0.00 0.00 0.00 68 1017.9
20210508065021 67 109 0.0 2.0 0.00 0.00 0.00 68 1017.9
20210508064524 67 112 0.0 1.0 0.00 0.00 0.00 68 1017.9
20210508064020 68 112 0.0 0.0 0.00 0.00 0.00 68 1018.0
20210508063518 68 112 0.0 0.0 0.00 0.00 0.00 68 1018.1
20210508063036 68 112 0.0 0.0 0.00 0.00 0.00 68 1018.1
20210508062520 68 112 0.0 1.0 0.00 0.00 0.00 68 1018.2
20210508062021 68 112 0.0 1.0 0.00 0.00 0.00 67 1018.2
20210508061552 68 112 0.0 1.0 0.00 0.00 0.00 67 1018.2
20210508061023 68 112 0.0 1.0 0.00 0.00 0.00 67 1018.3
20210508060514 68 113 0.0 1.0 0.00 0.00 0.00 67 1018.3
20210508060021 68 113 0.0 0.0 0.00 0.00 0.00 67 1018.3
20210508055530 68 113 0.0 0.0 0.00 0.00 0.00 67 1018.4
20210508055020 69 113 0.0 0.0 0.00 0.00 0.00 67 1018.5
20210508054556 68 113 0.0 0.0 0.00 0.00 0.00 67 1018.5
20210508054031 68 113 0.0 0.0 0.00 0.00 0.00 67 1018.5
20210508053510 69 113 0.0 0.0 0.00 0.00 0.00 66 1018.6
20210508053038 69 113 0.0 0.0 0.00 0.00 0.00 66 1018.6
20210508052509 69 113 0.0 0.0 0.00 0.00 0.00 65 1018.6
20210508052009 69 113 0.0 0.0 0.00 0.00 0.00 65 1018.7
20210508051527 69 113 0.0 0.0 0.00 0.00 0.00 65 1018.6
20210508051007 69 113 0.0 0.0 0.00 0.00 0.00 64 1018.6
20210508050519 70 113 0.0 0.0 0.00 0.00 0.00 63 1018.6
20210508050023 70 113 0.0 0.0 0.00 0.00 0.00 63 1018.7
20210508045504 70 113 0.0 0.0 0.00 0.00 0.00 62 1018.7
20210508045008 71 113 0.0 0.0 0.00 0.00 0.00 62 1018.7
20210508044503 71 113 0.0 0.0 0.00 0.00 0.00 61 1018.7
20210508044006 71 113 0.0 0.0 0.00 0.00 0.00 61 1018.7
20210508043502 71 113 0.0 0.0 0.00 0.00 0.00 61 1018.8
20210508043002 71 113 0.0 0.0 0.00 0.00 0.00 60 1018.9
20210508042600 72 113 0.0 0.0 0.00 0.00 0.00 60 1018.9
20210508042059 72 113 0.0 0.0 0.00 0.00 0.00 59 1019.0
20210508041805 72 113 0.0 0.0 0.00 0.00 0.00 58 1019.0
20210508041104 72 113 0.0 0.0 0.00 0.00 0.00 57 1019.0
20210508040615 73 113 0.0 0.0 0.00 0.00 0.00 56 1019.0
20210508040128 73 113 0.0 0.0 0.00 0.00 0.00 55 1018.9
20210508035559 74 113 0.0 1.0 0.00 0.00 0.00 55 1018.9
20210508035053 74 113 0.0 2.0 0.00 0.00 0.00 55 1019.0
20210508034728 74 113 0.0 2.0 0.00 0.00 0.00 54 1018.9
20210508034053 74 113 0.0 2.0 0.00 0.00 0.00 54 1019.0
20210508033554 74 113 0.0 1.0 0.00 0.00 0.00 54 1019.0
20210508033315 74 113 0.0 1.0 0.00 0.00 0.00 54 1018.9
20210508032607 74 113 0.0 1.0 0.00 0.00 0.00 54 1018.9
20210508032054 74 113 0.0 2.0 0.00 0.00 0.00 54 1018.9
20210508031639 74 113 0.0 2.0 0.00 0.00 0.00 53 1018.9
20210508031051 75 113 0.0 6.0 0.00 0.00 0.00 53 1018.8
20210508030550 75 113 0.0 6.0 0.00 0.00 0.00 52 1018.8
20210508030118 75 120 2.0 8.0 0.00 0.00 0.00 52 1018.7
20210508025550 75 103 1.0 8.0 0.00 0.01 0.00 52 1018.8
20210508025111 75 91 0.0 6.0 0.00 0.01 0.00 52 1018.7
20210508024639 75 88 1.0 6.0 0.00 0.01 0.00 52 1018.7
20210508024054 75 92 1.0 6.0 0.00 0.01 0.00 52 1018.6
20210508023549 75 90 1.0 6.0 0.00 0.01 0.00 51 1018.6
20210508023142 75 103 2.0 6.0 0.00 0.01 0.00 51 1018.6
20210508022553 75 105 2.0 4.0 0.00 0.01 0.00 51 1018.5
20210508022050 75 94 1.0 6.0 0.00 0.01 0.00 51 1018.5
20210508021624 75 118 2.0 6.0 0.00 0.01 0.00 51 1018.4
20210508021047 75 92 2.0 4.0 0.00 0.01 0.00 51 1018.4
20210508020545 75 124 1.0 4.0 0.00 0.01 0.00 51 1018.2
20210508020140 75 126 2.0 3.0 0.00 0.01 0.00 51 1018.3
20210508015626 75 97 1.0 3.0 0.00 0.01 0.00 52 1018.3
20210508015106 75 96 0.0 6.0 0.00 0.01 0.00 51 1018.2
20210508014736 75 94 2.0 6.0 0.00 0.01 0.00 51 1018.1
20210508014044 75 92 1.0 3.0 0.00 0.01 0.00 50 1018.0
20210508013545 75 96 0.0 3.0 0.00 0.01 0.00 50 1017.9
20210508013119 75 95 1.0 3.0 0.00 0.01 0.00 50 1017.8
20210508012547 75 49 1.0 3.0 0.00 0.01 0.00 50 1017.7
20210508012044 75 91 0.0 4.0 0.00 0.01 0.00 50 1017.5
20210508011635 75 103 1.0 4.0 0.00 0.01 0.00 50 1017.5
20210508011056 75 78 0.0 6.0 0.00 0.01 0.00 49 1017.4
20210508010553 75 49 1.0 6.0 0.00 0.01 0.00 48 1017.5
20210508010125 75 94 0.0 6.0 0.00 0.01 0.00 49 1017.4
20210508005550 75 94 0.0 6.0 0.00 0.01 0.00 49 1017.4
20210508005044 75 65 0.0 3.0 0.00 0.01 0.00 49 1017.3
20210508004638 75 64 1.0 3.0 0.00 0.01 0.00 50 1017.3
20210508004043 75 57 0.0 4.0 0.00 0.01 0.00 49 1017.2
20210508003542 75 63 1.0 4.0 0.00 0.01 0.00 49 1017.2
20210508003126 75 51 1.0 4.0 0.00 0.01 0.00 49 1017.2
20210508002552 75 96 0.0 4.0 0.00 0.01 0.00 49 1017.2
20210508002047 75 42 0.0 6.0 0.00 0.01 0.00 49 1017.2
20210508001601 75 36 1.0 6.0 0.00 0.01 0.00 49 1017.1
20210508001041 75 67 1.0 4.0 0.00 0.01 0.00 49 1017.1
20210508000551 75 32 0.0 4.0 0.00 0.01 0.00 48 1017.0
20210508000128 75 46 0.0 4.0 0.00 0.01 0.00 48 1017.0
20210507235541 75 48 0.0 5.0 0.00 0.01 0.00 47 1017.0
20210507235046 75 51 1.0 5.0 0.00 0.01 0.00 47 1016.9
20210507234628 75 132 1.0 6.0 0.00 0.01 0.00 46 1016.9
20210507234042 76 60 2.0 6.0 0.00 0.01 0.00 45 1016.8
20210507233539 76 5 2.0 6.0 0.00 0.01 0.00 46 1016.8
20210507233103 76 65 1.0 7.0 0.00 0.01 0.00 47 1016.7
20210507232552 76 29 2.0 6.0 0.00 0.01 0.00 46 1016.6
20210507232050 76 355 3.0 6.0 0.00 0.01 0.00 46 1016.5
20210507231622 76 40 0.0 9.0 0.00 0.01 0.00 45 1016.5
20210507231039 77 10 3.0 9.0 0.00 0.01 0.00 44 1016.4
20210507230605 77 346 1.0 9.0 0.00 0.01 0.00 45 1016.3
20210507230147 77 13 4.0 9.0 0.00 0.01 0.00 44 1016.3
20210507225539 77 360 2.0 9.0 0.00 0.01 0.00 43 1016.2
20210507225122 77 71 3.0 6.0 0.00 0.01 0.00 43 1016.2
20210507224702 77 14 1.0 4.0 0.00 0.01 0.00 44 1016.1